Wetterdaten: Dienstag, 15.08.2017
Datum Zeit Temp. A. Temp. A. min Temp. A. max Feuchte A. Bod.Feucht 4 Luftdruck Regen Wind Richtung Richtung Sonnenschein ET Solar Taupunkt Windchill Windben Empfang
15.08.2017 00:00 17,4 C 17,4 C 17,5 C 87 % 0 cb 1018,0 hPa 0,0 l/m 0,0 km/h (0 Bft) N 0 0 min 0,000 mm 0 W/m 15,2 C 17,4 C 0,0 km/h (0 Bft) 100,00 %
15.08.2017 00:10 17,3 C 17,3 C 17,4 C 88 % 0 cb 1017,9 hPa 0,0 l/m 0,0 km/h (0 Bft) N 0 0 min 0,000 mm 0 W/m 15,3 C 17,3 C 0,0 km/h (0 Bft) 100,00 %
15.08.2017 00:20 17,2 C 17,2 C 17,3 C 89 % 0 cb 1017,9 hPa 0,0 l/m 0,0 km/h (0 Bft) O-NO 67 0 min 0,000 mm 0 W/m 15,4 C 17,2 C 3,2 km/h (1 Bft) 100,00 %
15.08.2017 00:30 17,1 C 17,1 C 17,2 C 89 % 0 cb 1017,9 hPa 0,0 l/m 0,0 km/h (0 Bft) O-NO 67 0 min 0,000 mm 0 W/m 15,3 C 17,1 C 4,8 km/h (1 Bft) 100,00 %
15.08.2017 00:40 17,2 C 17,1 C 17,2 C 89 % 0 cb 1017,9 hPa 0,0 l/m 1,6 km/h (1 Bft) O-NO 67 0 min 0,000 mm 0 W/m 15,4 C 17,2 C 4,8 km/h (1 Bft) 100,00 %
15.08.2017 00:50 17,1 C 17,1 C 17,2 C 88 % 0 cb 1017,8 hPa 0,0 l/m 0,0 km/h (0 Bft) N 0 0 min 0,000 mm 0 W/m 15,1 C 17,1 C 0,0 km/h (0 Bft) 100,00 %
15.08.2017 01:00 16,9 C 16,9 C 17,1 C 89 % 0 cb 1017,8 hPa 0,0 l/m 0,0 km/h (0 Bft) O-NO 67 0 min 0,000 mm 0 W/m 15,1 C 16,9 C 1,6 km/h (1 Bft) 100,00 %
15.08.2017 01:10 16,7 C 16,7 C 16,9 C 89 % 0 cb 1017,7 hPa 0,0 l/m 0,0 km/h (0 Bft) N 0 0 min 0,000 mm 0 W/m 14,9 C 16,7 C 0,0 km/h (0 Bft) 100,00 %
15.08.2017 01:20 16,4 C 16,4 C 16,7 C 90 % 0 cb 1017,7 hPa 0,0 l/m 0,0 km/h (0 Bft) N 0 0 min 0,000 mm 0 W/m 14,8 C 16,4 C 0,0 km/h (0 Bft) 100,00 %
15.08.2017 01:30 16,3 C 16,3 C 16,4 C 91 % 0 cb 1017,6 hPa 0,0 l/m 0,0 km/h (0 Bft) O-NO 67 0 min 0,000 mm 0 W/m 14,8 C 16,3 C 3,2 km/h (1 Bft) 100,00 %
15.08.2017 01:40 16,2 C 16,2 C 16,3 C 91 % 0 cb 1017,6 hPa 0,0 l/m 0,0 km/h (0 Bft) O-NO 67 0 min 0,000 mm 0 W/m 14,7 C 16,2 C 3,2 km/h (1 Bft) 100,00 %
15.08.2017 01:50 16,1 C 16,1 C 16,2 C 91 % 0 cb 1017,6 hPa 0,0 l/m 0,0 km/h (0 Bft) N 0 0 min 0,000 mm 0 W/m 14,6 C 16,1 C 0,0 km/h (0 Bft) 100,00 %
15.08.2017 02:00 15,8 C 15,8 C 16,1 C 91 % 0 cb 1017,5 hPa 0,0 l/m 0,0 km/h (0 Bft) N 0 0 min 0,000 mm 0 W/m 14,3 C 15,8 C 0,0 km/h (0 Bft) 100,00 %
15.08.2017 02:10 15,8 C 15,8 C 15,8 C 93 % 0 cb 1017,4 hPa 0,0 l/m 0,0 km/h (0 Bft) N 0 0 min 0,000 mm 0 W/m 14,7 C 15,8 C 0,0 km/h (0 Bft) 100,00 %
15.08.2017 02:20 15,7 C 15,7 C 15,8 C 92 % 0 cb 1017,3 hPa 0,0 l/m 0,0 km/h (0 Bft) N 0 0 min 0,000 mm 0 W/m 14,4 C 15,7 C 0,0 km/h (0 Bft) 100,00 %
15.08.2017 02:30 15,6 C 15,6 C 15,7 C 93 % 0 cb 1017,3 hPa 0,0 l/m 0,0 km/h (0 Bft) O-NO 67 0 min 0,000 mm 0 W/m 14,5 C 15,6 C 1,6 km/h (1 Bft) 100,00 %
15.08.2017 02:40 15,4 C 15,4 C 15,6 C 93 % 0 cb 1017,3 hPa 0,0 l/m 0,0 km/h (0 Bft) N 0 0 min 0,000 mm 0 W/m 14,3 C 15,4 C 0,0 km/h (0 Bft) 100,00 %
15.08.2017 02:50 15,3 C 15,3 C 15,4 C 93 % 0 cb 1017,3 hPa 0,0 l/m 0,0 km/h (0 Bft) N 0 0 min 0,000 mm 0 W/m 14,2 C 15,3 C 0,0 km/h (0 Bft) 100,00 %
15.08.2017 03:00 15,2 C 15,2 C 15,3 C 93 % 0 cb 1017,2 hPa 0,0 l/m 0,0 km/h (0 Bft) N 0 0 min 0,000 mm 0 W/m 14,1 C 15,2 C 0,0 km/h (0 Bft) 100,00 %
15.08.2017 03:10 15,1 C 15,1 C 15,2 C 93 % 0 cb 1017,2 hPa 0,0 l/m 0,0 km/h (0 Bft) N 0 0 min 0,000 mm 0 W/m 14,0 C 15,1 C 0,0 km/h (0 Bft) 100,00 %
15.08.2017 03:20 15,0 C 15,0 C 15,1 C 93 % 0 cb 1017,2 hPa 0,0 l/m 0,0 km/h (0 Bft) N 0 0 min 0,000 mm 0 W/m 13,9 C 15,0 C 0,0 km/h (0 Bft) 100,00 %
15.08.2017 03:30 15,1 C 14,9 C 15,1 C 95 % 0 cb 1017,1 hPa 0,0 l/m 0,0 km/h (0 Bft) O-NO 67 0 min 0,000 mm 0 W/m 14,3 C 15,1 C 4,8 km/h (1 Bft) 100,00 %
15.08.2017 03:40 15,2 C 15,1 C 15,2 C 94 % 0 cb 1017,1 hPa 0,0 l/m 1,6 km/h (1 Bft) O-NO 67 0 min 0,000 mm 0 W/m 14,2 C 15,2 C 4,8 km/h (1 Bft) 100,00 %
15.08.2017 03:50 15,1 C 15,1 C 15,2 C 94 % 0 cb 1017,1 hPa 0,0 l/m 0,0 km/h (0 Bft) O-NO 67 0 min 0,000 mm 0 W/m 14,1 C 15,1 C 1,6 km/h (1 Bft) 100,00 %
15.08.2017 04:00 15,0 C 15,0 C 15,2 C 94 % 0 cb 1017,1 hPa 0,0 l/m 0,0 km/h (0 Bft) O-NO 67 0 min 0,000 mm 0 W/m 14,0 C 15,0 C 1,6 km/h (1 Bft) 100,00 %
15.08.2017 04:10 14,9 C 14,9 C 15,0 C 94 % 0 cb 1017,0 hPa 0,0 l/m 0,0 km/h (0 Bft) N 0 0 min 0,000 mm 0 W/m 13,9 C 14,9 C 0,0 km/h (0 Bft) 100,00 %
15.08.2017 04:20 14,8 C 14,8 C 14,9 C 94 % 0 cb 1017,1 hPa 0,0 l/m 0,0 km/h (0 Bft) O-NO 67 0 min 0,000 mm 0 W/m 13,8 C 14,8 C 1,6 km/h (1 Bft) 100,00 %
15.08.2017 04:30 14,7 C 14,7 C 14,8 C 95 % 0 cb 1017,1 hPa 0,0 l/m 0,0 km/h (0 Bft) N 0 0 min 0,000 mm 0 W/m 13,9 C 14,7 C 0,0 km/h (0 Bft) 100,00 %
15.08.2017 04:40 14,7 C 14,6 C 14,7 C 95 % 0 cb 1017,1 hPa 0,0 l/m 0,0 km/h (0 Bft) N 0 0 min 0,000 mm 0 W/m 13,9 C 14,7 C 0,0 km/h (0 Bft) 100,00 %
15.08.2017 04:50 14,7 C 14,7 C 14,7 C 95 % 0 cb 1017,1 hPa 0,0 l/m 0,0 km/h (0 Bft) N 0 0 min 0,000 mm 0 W/m 13,9 C 14,7 C 0,0 km/h (0 Bft) 100,00 %
15.08.2017 05:00 14,6 C 14,6 C 14,7 C 95 % 0 cb 1017,1 hPa 0,0 l/m 0,0 km/h (0 Bft) N 0 0 min 0,000 mm 0 W/m 13,8 C 14,6 C 0,0 km/h (0 Bft) 100,00 %
15.08.2017 05:10 14,4 C 14,4 C 14,6 C 95 % 0 cb 1017,0 hPa 0,0 l/m 0,0 km/h (0 Bft) N 0 0 min 0,000 mm 0 W/m 13,6 C 14,4 C 0,0 km/h (0 Bft) 100,00 %
15.08.2017 05:20 14,4 C 14,4 C 14,4 C 95 % 0 cb 1016,9 hPa 0,0 l/m 0,0 km/h (0 Bft) N 0 0 min 0,000 mm 0 W/m 13,6 C 14,4 C 0,0 km/h (0 Bft) 100,00 %
15.08.2017 05:30 14,3 C 14,3 C 14,4 C 95 % 0 cb 1016,9 hPa 0,0 l/m 0,0 km/h (0 Bft) N 0 0 min 0,000 mm 0 W/m 13,5 C 14,3 C 0,0 km/h (0 Bft) 100,00 %
15.08.2017 05:40 14,3 C 14,3 C 14,3 C 95 % 0 cb 1016,9 hPa 0,0 l/m 0,0 km/h (0 Bft) N 0 0 min 0,000 mm 0 W/m 13,5 C 14,3 C 0,0 km/h (0 Bft) 100,00 %
15.08.2017 05:50 14,3 C 14,2 C 14,3 C 96 % 0 cb 1016,9 hPa 0,0 l/m 0,0 km/h (0 Bft) N 0 0 min 0,000 mm 0 W/m 13,7 C 14,3 C 0,0 km/h (0 Bft) 100,00 %
15.08.2017 06:00 14,4 C 14,3 C 14,5 C 96 % 0 cb 1016,9 hPa 0,0 l/m 0,0 km/h (0 Bft) N 0 0 min 0,000 mm 0 W/m 13,8 C 14,4 C 0,0 km/h (0 Bft) 100,00 %
15.08.2017 06:10 14,4 C 14,4 C 14,4 C 96 % 0 cb 1016,9 hPa 0,0 l/m 0,0 km/h (0 Bft) N 0 0 min 0,000 mm 0 W/m 13,8 C 14,4 C 0,0 km/h (0 Bft) 100,00 %
15.08.2017 06:20 14,6 C 14,4 C 14,6 C 96 % 0 cb 1016,9 hPa 0,0 l/m 0,0 km/h (0 Bft) N 0 0 min 0,000 mm 0 W/m 14,0 C 14,6 C 0,0 km/h (0 Bft) 100,00 %
15.08.2017 06:30 14,4 C 14,4 C 14,6 C 96 % 0 cb 1016,9 hPa 0,0 l/m 0,0 km/h (0 Bft) N 0 0 min 0,000 mm 7 W/m 13,8 C 14,4 C 0,0 km/h (0 Bft) 100,00 %
15.08.2017 06:40 14,3 C 14,3 C 14,4 C 96 % 0 cb 1016,8 hPa 0,0 l/m 0,0 km/h (0 Bft) N 0 0 min 0,000 mm 14 W/m 13,7 C 14,3 C 0,0 km/h (0 Bft) 100,00 %
15.08.2017 06:50 14,9 C 14,3 C 14,9 C 97 % 0 cb 1016,8 hPa 0,0 l/m 0,0 km/h (0 Bft) N 0 0 min 0,000 mm 21 W/m 14,4 C 14,9 C 0,0 km/h (0 Bft) 100,00 %
15.08.2017 07:00 15,2 C 14,9 C 15,2 C 97 % 0 cb 1016,9 hPa 0,0 l/m 0,0 km/h (0 Bft) N 0 0 min 0,000 mm 37 W/m 14,7 C 15,2 C 0,0 km/h (0 Bft) 100,00 %
15.08.2017 07:10 15,1 C 15,1 C 15,2 C 96 % 0 cb 1016,8 hPa 0,0 l/m 0,0 km/h (0 Bft) N 0 0 min 0,000 mm 54 W/m 14,5 C 15,1 C 0,0 km/h (0 Bft) 100,00 %
15.08.2017 07:20 15,3 C 15,1 C 15,4 C 95 % 0 cb 1016,8 hPa 0,0 l/m 0,0 km/h (0 Bft) N 0 0 min 0,000 mm 62 W/m 14,5 C 15,3 C 0,0 km/h (0 Bft) 100,00 %
15.08.2017 07:30 15,1 C 15,0 C 15,3 C 95 % 0 cb 1016,6 hPa 0,0 l/m 0,0 km/h (0 Bft) N 0 0 min 0,000 mm 116 W/m 14,3 C 15,1 C 0,0 km/h (0 Bft) 100,00 %
15.08.2017 07:40 15,6 C 15,1 C 15,6 C 97 % 0 cb 1016,6 hPa 0,0 l/m 0,0 km/h (0 Bft) N 0 0 min 0,000 mm 139 W/m 15,1 C 15,6 C 0,0 km/h (0 Bft) 100,00 %
15.08.2017 07:50 16,1 C 15,7 C 16,1 C 96 % 0 cb 1016,6 hPa 0,0 l/m 0,0 km/h (0 Bft) N 0 0 min 0,000 mm 141 W/m 15,5 C 16,1 C 0,0 km/h (0 Bft) 100,00 %
15.08.2017 08:00 16,4 C 16,1 C 16,4 C 95 % 0 cb 1016,7 hPa 0,0 l/m 0,0 km/h (0 Bft) N 0 0 min 0,051 mm 120 W/m 15,6 C 16,4 C 0,0 km/h (0 Bft) 100,00 %
15.08.2017 08:10 16,6 C 16,4 C 16,6 C 94 % 0 cb 1016,9 hPa 0,0 l/m 0,0 km/h (0 Bft) N 0 10 min 0,000 mm 186 W/m 15,6 C 16,6 C 0,0 km/h (0 Bft) 99,56 %
15.08.2017 08:20 17,0 C 16,6 C 17,0 C 93 % 0 cb 1016,8 hPa 0,0 l/m 0,0 km/h (0 Bft) N 0 10 min 0,000 mm 306 W/m 15,9 C 17,0 C 0,0 km/h (0 Bft) 100,00 %
15.08.2017 08:30 18,1 C 17,0 C 18,1 C 90 % 0 cb 1016,8 hPa 0,0 l/m 0,0 km/h (0 Bft) N 0 10 min 0,000 mm 302 W/m 16,4 C 18,1 C 0,0 km/h (0 Bft) 100,00 %
15.08.2017 08:40 19,0 C 18,1 C 19,0 C 85 % 0 cb 1017,1 hPa 0,0 l/m 0,0 km/h (0 Bft) N 0 10 min 0,000 mm 250 W/m 16,4 C 19,0 C 0,0 km/h (0 Bft) 100,00 %
15.08.2017 08:50 19,7 C 19,0 C 19,7 C 86 % 0 cb 1017,3 hPa 0,0 l/m 0,0 km/h (0 Bft) N 0 10 min 0,000 mm 255 W/m 17,3 C 19,7 C 0,0 km/h (0 Bft) 100,00 %
15.08.2017 09:00 20,2 C 19,7 C 20,2 C 82 % 0 cb 1016,9 hPa 0,0 l/m 0,0 km/h (0 Bft) N 0 10 min 0,127 mm 227 W/m 17,0 C 20,2 C 0,0 km/h (0 Bft) 100,00 %
15.08.2017 09:10 20,2 C 20,2 C 20,3 C 83 % 0 cb 1016,9 hPa 0,0 l/m 0,0 km/h (0 Bft) N 0 10 min 0,000 mm 165 W/m 17,2 C 20,2 C 0,0 km/h (0 Bft) 100,00 %
15.08.2017 09:20 20,7 C 20,2 C 20,7 C 84 % 0 cb 1016,6 hPa 0,0 l/m 0,0 km/h (0 Bft) NO 45 10 min 0,000 mm 461 W/m 17,9 C 20,7 C 3,2 km/h (1 Bft) 100,00 %
15.08.2017 09:30 21,3 C 20,7 C 21,3 C 80 % 0 cb 1016,5 hPa 0,0 l/m 1,6 km/h (1 Bft) O-SO 112 10 min 0,000 mm 494 W/m 17,7 C 21,3 C 9,7 km/h (2 Bft) 100,00 %
15.08.2017 09:40 21,4 C 21,3 C 21,4 C 77 % 0 cb 1017,1 hPa 0,0 l/m 3,2 km/h (1 Bft) S 180 10 min 0,000 mm 265 W/m 17,2 C 21,4 C 8,0 km/h (2 Bft) 100,00 %
15.08.2017 09:50 21,4 C 21,4 C 21,5 C 78 % 0 cb 1017,4 hPa 0,0 l/m 0,0 km/h (0 Bft) S 180 10 min 0,000 mm 272 W/m 17,4 C 21,4 C 3,2 km/h (1 Bft) 100,00 %
15.08.2017 10:00 21,6 C 21,4 C 21,6 C 74 % 0 cb 1017,1 hPa 0,0 l/m 1,6 km/h (1 Bft) SO 135 10 min 0,178 mm 575 W/m 16,8 C 21,6 C 6,4 km/h (2 Bft) 100,00 %
15.08.2017 10:10 22,1 C 21,6 C 22,1 C 75 % 0 cb 1016,9 hPa 0,0 l/m 3,2 km/h (1 Bft) S 180 10 min 0,000 mm 519 W/m 17,5 C 22,1 C 9,7 km/h (2 Bft) 100,00 %
15.08.2017 10:20 22,7 C 22,1 C 22,7 C 75 % 0 cb 1017,0 hPa 0,0 l/m 3,2 km/h (1 Bft) S 180 10 min 0,000 mm 547 W/m 18,0 C 22,7 C 8,0 km/h (2 Bft) 100,00 %
15.08.2017 10:30 23,3 C 22,7 C 23,3 C 71 % 0 cb 1016,9 hPa 0,0 l/m 3,2 km/h (1 Bft) S 180 10 min 0,000 mm 566 W/m 17,7 C 23,3 C 8,0 km/h (2 Bft) 100,00 %
15.08.2017 10:40 23,8 C 23,3 C 23,8 C 70 % 0 cb 1017,0 hPa 0,0 l/m 3,2 km/h (1 Bft) S-SW 202 10 min 0,000 mm 608 W/m 18,0 C 23,8 C 9,7 km/h (2 Bft) 100,00 %
15.08.2017 10:50 24,2 C 23,8 C 24,2 C 66 % 0 cb 1016,8 hPa 0,0 l/m 4,8 km/h (1 Bft) S-SW 202 10 min 0,000 mm 631 W/m 17,4 C 24,2 C 14,5 km/h (3 Bft) 100,00 %
15.08.2017 11:00 24,1 C 24,1 C 24,2 C 65 % 0 cb 1017,0 hPa 0,0 l/m 6,4 km/h (2 Bft) S-SW 202 10 min 0,330 mm 715 W/m 17,1 C 24,1 C 16,1 km/h (3 Bft) 100,00 %
15.08.2017 11:10 24,1 C 23,9 C 24,1 C 65 % 0 cb 1016,9 hPa 0,0 l/m 4,8 km/h (1 Bft) S 180 10 min 0,000 mm 826 W/m 17,1 C 24,1 C 16,1 km/h (3 Bft) 100,00 %
15.08.2017 11:20 24,6 C 24,2 C 24,6 C 65 % 0 cb 1017,0 hPa 0,0 l/m 3,2 km/h (1 Bft) SW 225 10 min 0,000 mm 737 W/m 17,6 C 24,6 C 6,4 km/h (2 Bft) 100,00 %
15.08.2017 11:30 25,0 C 24,6 C 25,0 C 64 % 0 cb 1016,9 hPa 0,0 l/m 3,2 km/h (1 Bft) S 180 10 min 0,000 mm 606 W/m 17,7 C 25,0 C 11,3 km/h (2 Bft) 99,56 %
15.08.2017 11:40 25,0 C 24,9 C 25,1 C 64 % 0 cb 1017,2 hPa 0,0 l/m 3,2 km/h (1 Bft) S 180 10 min 0,000 mm 431 W/m 17,7 C 25,0 C 11,3 km/h (2 Bft) 100,00 %
15.08.2017 11:50 24,4 C 24,4 C 25,0 C 65 % 0 cb 1017,3 hPa 0,0 l/m 3,2 km/h (1 Bft) W-SW 247 10 min 0,000 mm 260 W/m 17,4 C 24,4 C 16,1 km/h (3 Bft) 100,00 %
15.08.2017 12:00 23,9 C 23,9 C 24,4 C 67 % 0 cb 1017,2 hPa 0,0 l/m 1,6 km/h (1 Bft) S-SW 202 10 min 0,279 mm 352 W/m 17,4 C 23,9 C 8,0 km/h (2 Bft) 100,00 %
15.08.2017 12:10 24,1 C 23,9 C 24,1 C 68 % 0 cb 1017,3 hPa 0,0 l/m 3,2 km/h (1 Bft) W-SW 247 10 min 0,000 mm 397 W/m 17,8 C 24,1 C 8,0 km/h (2 Bft) 100,00 %
15.08.2017 12:20 24,1 C 24,1 C 24,1 C 69 % 0 cb 1017,4 hPa 0,0 l/m 3,2 km/h (1 Bft) S 180 10 min 0,000 mm 452 W/m 18,0 C 24,1 C 9,7 km/h (2 Bft) 100,00 %
15.08.2017 12:30 23,9 C 23,9 C 24,2 C 67 % 0 cb 1017,7 hPa 0,0 l/m 3,2 km/h (1 Bft) W 270 10 min 0,000 mm 287 W/m 17,4 C 23,9 C 12,9 km/h (3 Bft) 100,00 %
15.08.2017 12:40 23,2 C 23,2 C 23,9 C 69 % 0 cb 1018,1 hPa 0,0 l/m 4,8 km/h (1 Bft) W-SW 247 0 min 0,000 mm 86 W/m 17,2 C 23,2 C 14,5 km/h (3 Bft) 99,56 %
15.08.2017 12:50 22,4 C 22,4 C 23,2 C 75 % 0 cb 1018,6 hPa 0,0 l/m 4,8 km/h (1 Bft) SW 225 0 min 0,000 mm 51 W/m 17,7 C 22,4 C 16,1 km/h (3 Bft) 100,00 %
15.08.2017 13:00 21,4 C 21,4 C 22,3 C 78 % 0 cb 1018,7 hPa 0,0 l/m 6,4 km/h (2 Bft) S 180 0 min 0,127 mm 47 W/m 17,4 C 21,4 C 16,1 km/h (3 Bft) 100,00 %
15.08.2017 13:10 20,8 C 20,8 C 21,4 C 81 % 0 cb 1018,7 hPa 0,2 l/m 4,8 km/h (1 Bft) S 180 0 min 0,000 mm 25 W/m 17,4 C 20,8 C 14,5 km/h (3 Bft) 100,00 %
15.08.2017 13:20 20,2 C 20,2 C 20,8 C 83 % 0 cb 1019,0 hPa 0,0 l/m 4,8 km/h (1 Bft) SW 225 0 min 0,000 mm 23 W/m 17,2 C 20,2 C 12,9 km/h (3 Bft) 100,00 %
15.08.2017 13:30 19,8 C 19,8 C 20,2 C 85 % 0 cb 1018,9 hPa 0,4 l/m 3,2 km/h (1 Bft) S 180 0 min 0,000 mm 25 W/m 17,2 C 19,8 C 11,3 km/h (2 Bft) 100,00 %
15.08.2017 13:40 19,4 C 19,4 C 19,8 C 88 % 0 cb 1018,5 hPa 0,6 l/m 1,6 km/h (1 Bft) SO 135 0 min 0,000 mm 44 W/m 17,4 C 19,4 C 6,4 km/h (2 Bft) 100,00 %
15.08.2017 13:50 19,0 C 19,0 C 19,4 C 91 % 0 cb 1018,0 hPa 0,6 l/m 3,2 km/h (1 Bft) N-NO 22 10 min 0,000 mm 158 W/m 17,5 C 19,0 C 9,7 km/h (2 Bft) 100,00 %
15.08.2017 14:00 19,2 C 19,0 C 19,2 C 93 % 0 cb 1017,6 hPa 0,0 l/m 1,6 km/h (1 Bft) N-NO 22 10 min 0,051 mm 636 W/m 18,0 C 19,2 C 4,8 km/h (1 Bft) 100,00 %
15.08.2017 14:10 19,6 C 19,2 C 19,6 C 93 % 0 cb 1018,0 hPa 0,0 l/m 1,6 km/h (1 Bft) NO 45 10 min 0,000 mm 330 W/m 18,4 C 19,6 C 6,4 km/h (2 Bft) 100,00 %
15.08.2017 14:20 19,8 C 19,6 C 19,8 C 91 % 0 cb 1018,1 hPa 0,0 l/m 1,6 km/h (1 Bft) SO 135 10 min 0,000 mm 225 W/m 18,3 C 19,8 C 3,2 km/h (1 Bft) 100,00 %
15.08.2017 14:30 19,8 C 19,7 C 19,8 C 90 % 0 cb 1018,0 hPa 0,0 l/m 1,6 km/h (1 Bft) SO 135 10 min 0,000 mm 274 W/m 18,1 C 19,8 C 6,4 km/h (2 Bft) 100,00 %
15.08.2017 14:40 20,1 C 19,8 C 20,1 C 90 % 0 cb 1017,6 hPa 0,0 l/m 1,6 km/h (1 Bft) S-SO 157 10 min 0,000 mm 350 W/m 18,4 C 20,1 C 4,8 km/h (1 Bft) 100,00 %
15.08.2017 14:50 20,4 C 20,1 C 20,4 C 87 % 0 cb 1017,4 hPa 0,0 l/m 1,6 km/h (1 Bft) O-SO 112 10 min 0,000 mm 345 W/m 18,2 C 20,4 C 6,4 km/h (2 Bft) 100,00 %
15.08.2017 15:00 20,6 C 20,4 C 20,6 C 87 % 0 cb 1017,5 hPa 0,0 l/m 3,2 km/h (1 Bft) S-SO 157 10 min 0,152 mm 287 W/m 18,4 C 20,6 C 6,4 km/h (2 Bft) 100,00 %
15.08.2017 15:10 20,8 C 20,6 C 20,8 C 88 % 0 cb 1017,4 hPa 0,0 l/m 3,2 km/h (1 Bft) S 180 10 min 0,000 mm 311 W/m 18,7 C 20,8 C 11,3 km/h (2 Bft) 100,00 %
15.08.2017 15:20 20,9 C 20,8 C 20,9 C 88 % 0 cb 1017,8 hPa 0,0 l/m 3,2 km/h (1 Bft) S-SW 202 10 min 0,000 mm 281 W/m 18,8 C 20,9 C 8,0 km/h (2 Bft) 100,00 %
15.08.2017 15:30 21,1 C 20,9 C 21,1 C 88 % 0 cb 1017,8 hPa 0,0 l/m 3,2 km/h (1 Bft) S 180 10 min 0,000 mm 327 W/m 19,0 C 21,1 C 8,0 km/h (2 Bft) 99,12 %
15.08.2017 15:40 21,4 C 21,1 C 21,4 C 88 % 0 cb 1017,8 hPa 0,0 l/m 3,2 km/h (1 Bft) SW 225 10 min 0,000 mm 445 W/m 19,3 C 21,4 C 8,0 km/h (2 Bft) 100,00 %
15.08.2017 15:50 21,6 C 21,4 C 21,6 C 86 % 0 cb 1017,9 hPa 0,0 l/m 4,8 km/h (1 Bft) S 180 10 min 0,000 mm 410 W/m 19,2 C 21,6 C 12,9 km/h (3 Bft) 100,00 %
15.08.2017 16:00 21,9 C 21,6 C 21,9 C 84 % 0 cb 1017,9 hPa 0,0 l/m 3,2 km/h (1 Bft) S-SW 202 10 min 0,203 mm 413 W/m 19,1 C 21,9 C 14,5 km/h (3 Bft) 100,00 %
15.08.2017 16:10 22,3 C 21,9 C 22,3 C 83 % 0 cb 1017,9 hPa 0,0 l/m 3,2 km/h (1 Bft) S-SW 202 10 min 0,000 mm 476 W/m 19,3 C 22,3 C 12,9 km/h (3 Bft) 100,00 %
15.08.2017 16:20 22,5 C 22,3 C 22,5 C 80 % 0 cb 1017,9 hPa 0,0 l/m 4,8 km/h (1 Bft) SW 225 10 min 0,000 mm 747 W/m 18,9 C 22,5 C 14,5 km/h (3 Bft) 100,00 %
15.08.2017 16:30 22,9 C 22,5 C 22,9 C 79 % 0 cb 1017,8 hPa 0,0 l/m 4,8 km/h (1 Bft) W 270 10 min 0,000 mm 492 W/m 19,1 C 22,9 C 16,1 km/h (3 Bft) 100,00 %
15.08.2017 16:40 23,1 C 22,9 C 23,2 C 76 % 0 cb 1017,9 hPa 0,0 l/m 4,8 km/h (1 Bft) W 270 10 min 0,000 mm 524 W/m 18,6 C 23,1 C 14,5 km/h (3 Bft) 100,00 %
15.08.2017 16:50 22,9 C 22,9 C 23,1 C 75 % 0 cb 1017,8 hPa 0,0 l/m 8,0 km/h (2 Bft) W 270 10 min 0,000 mm 404 W/m 18,2 C 22,9 C 19,3 km/h (3 Bft) 100,00 %
15.08.2017 17:00 23,0 C 22,8 C 23,0 C 77 % 0 cb 1017,9 hPa 0,0 l/m 4,8 km/h (1 Bft) W 270 10 min 0,254 mm 439 W/m 18,7 C 23,0 C 14,5 km/h (3 Bft) 100,00 %
15.08.2017 17:10 22,9 C 22,9 C 23,0 C 77 % 0 cb 1017,9 hPa 0,0 l/m 4,8 km/h (1 Bft) W-SW 247 10 min 0,000 mm 267 W/m 18,6 C 22,9 C 14,5 km/h (3 Bft) 100,00 %
15.08.2017 17:20 22,8 C 22,8 C 22,9 C 77 % 0 cb 1018,0 hPa 0,0 l/m 4,8 km/h (1 Bft) W 270 10 min 0,000 mm 244 W/m 18,5 C 22,8 C 16,1 km/h (3 Bft) 100,00 %
15.08.2017 17:30 22,9 C 22,7 C 22,9 C 77 % 0 cb 1017,7 hPa 0,0 l/m 3,2 km/h (1 Bft) W 270 10 min 0,000 mm 582 W/m 18,6 C 22,9 C 12,9 km/h (3 Bft) 100,00 %
15.08.2017 17:40 23,1 C 22,9 C 23,2 C 76 % 0 cb 1018,0 hPa 0,0 l/m 4,8 km/h (1 Bft) W-SW 247 10 min 0,000 mm 529 W/m 18,6 C 23,1 C 16,1 km/h (3 Bft) 100,00 %
15.08.2017 17:50 22,7 C 22,7 C 23,1 C 76 % 0 cb 1017,7 hPa 0,0 l/m 3,2 km/h (1 Bft) W 270 10 min 0,000 mm 171 W/m 18,2 C 22,7 C 12,9 km/h (3 Bft) 100,00 %
15.08.2017 18:00 22,3 C 22,3 C 22,7 C 77 % 0 cb 1017,8 hPa 0,0 l/m 3,2 km/h (1 Bft) W-SW 247 0 min 0,152 mm 148 W/m 18,1 C 22,3 C 16,1 km/h (3 Bft) 100,00 %
15.08.2017 18:10 22,1 C 22,1 C 22,3 C 76 % 0 cb 1017,6 hPa 0,0 l/m 3,2 km/h (1 Bft) W-SW 247 10 min 0,000 mm 163 W/m 17,7 C 22,1 C 11,3 km/h (2 Bft) 100,00 %
15.08.2017 18:20 22,2 C 22,1 C 22,2 C 78 % 0 cb 1017,7 hPa 0,0 l/m 1,6 km/h (1 Bft) S-SW 202 10 min 0,000 mm 236 W/m 18,2 C 22,2 C 6,4 km/h (2 Bft) 100,00 %
15.08.2017 18:30 22,4 C 22,2 C 22,4 C 77 % 0 cb 1017,8 hPa 0,0 l/m 3,2 km/h (1 Bft) SW 225 10 min 0,000 mm 320 W/m 18,2 C 22,4 C 8,0 km/h (2 Bft) 100,00 %
15.08.2017 18:40 22,3 C 22,3 C 22,4 C 77 % 0 cb 1017,8 hPa 0,0 l/m 3,2 km/h (1 Bft) W 270 0 min 0,000 mm 123 W/m 18,1 C 22,3 C 11,3 km/h (2 Bft) 100,00 %
15.08.2017 18:50 22,3 C 22,3 C 22,3 C 78 % 0 cb 1017,8 hPa 0,0 l/m 3,2 km/h (1 Bft) W 270 0 min 0,000 mm 137 W/m 18,3 C 22,3 C 14,5 km/h (3 Bft) 100,00 %
15.08.2017 19:00 22,3 C 22,2 C 22,3 C 78 % 0 cb 1017,7 hPa 0,0 l/m 3,2 km/h (1 Bft) W 270 0 min 0,102 mm 151 W/m 18,3 C 22,3 C 11,3 km/h (2 Bft) 100,00 %
15.08.2017 19:10 22,5 C 22,3 C 22,5 C 77 % 0 cb 1017,6 hPa 0,0 l/m 3,2 km/h (1 Bft) W 270 10 min 0,000 mm 230 W/m 18,3 C 22,5 C 9,7 km/h (2 Bft) 100,00 %
15.08.2017 19:20 22,3 C 22,3 C 22,5 C 76 % 0 cb 1017,8 hPa 0,0 l/m 4,8 km/h (1 Bft) W 270 0 min 0,000 mm 148 W/m 17,9 C 22,3 C 12,9 km/h (3 Bft) 100,00 %
15.08.2017 19:30 21,8 C 21,8 C 22,2 C 77 % 0 cb 1018,1 hPa 0,0 l/m 3,2 km/h (1 Bft) W-SW 247 0 min 0,000 mm 49 W/m 17,6 C 21,8 C 16,1 km/h (3 Bft) 100,00 %
15.08.2017 19:40 21,5 C 21,5 C 21,8 C 79 % 0 cb 1018,2 hPa 0,0 l/m 3,2 km/h (1 Bft) SW 225 0 min 0,000 mm 46 W/m 17,7 C 21,5 C 9,7 km/h (2 Bft) 100,00 %
15.08.2017 19:50 21,2 C 21,2 C 21,5 C 81 % 0 cb 1018,3 hPa 0,0 l/m 1,6 km/h (1 Bft) SW 225 0 min 0,000 mm 47 W/m 17,8 C 21,2 C 4,8 km/h (1 Bft) 100,00 %
15.08.2017 20:00 21,1 C 21,1 C 21,2 C 82 % 0 cb 1018,3 hPa 0,0 l/m 0,0 km/h (0 Bft) S-SW 202 0 min 0,051 mm 42 W/m 17,9 C 21,1 C 4,8 km/h (1 Bft) 100,00 %
15.08.2017 20:10 20,8 C 20,8 C 21,0 C 82 % 0 cb 1018,2 hPa 0,0 l/m 1,6 km/h (1 Bft) SW 225 0 min 0,000 mm 35 W/m 17,6 C 20,8 C 4,8 km/h (1 Bft) 100,00 %
15.08.2017 20:20 20,7 C 20,7 C 20,8 C 83 % 0 cb 1018,3 hPa 0,0 l/m 1,6 km/h (1 Bft) S 180 0 min 0,000 mm 35 W/m 17,7 C 20,7 C 4,8 km/h (1 Bft) 99,56 %
15.08.2017 20:30 20,6 C 20,6 C 20,7 C 84 % 0 cb 1018,5 hPa 0,0 l/m 0,0 km/h (0 Bft) S 180 0 min 0,000 mm 35 W/m 17,8 C 20,6 C 3,2 km/h (1 Bft) 100,00 %
15.08.2017 20:40 20,3 C 20,3 C 20,6 C 85 % 0 cb 1018,5 hPa 0,0 l/m 1,6 km/h (1 Bft) SW 225 0 min 0,000 mm 18 W/m 17,7 C 20,3 C 6,4 km/h (2 Bft) 100,00 %
15.08.2017 20:50 20,2 C 20,2 C 20,3 C 85 % 0 cb 1018,5 hPa 0,0 l/m 1,6 km/h (1 Bft) S-SW 202 0 min 0,000 mm 5 W/m 17,6 C 20,2 C 8,0 km/h (2 Bft) 100,00 %
15.08.2017 21:00 20,0 C 19,9 C 20,2 C 86 % 0 cb 1018,5 hPa 0,0 l/m 1,6 km/h (1 Bft) S-SW 202 0 min 0,025 mm 0 W/m 17,6 C 20,0 C 4,8 km/h (1 Bft) 100,00 %
15.08.2017 21:10 19,9 C 19,9 C 20,0 C 86 % 0 cb 1018,6 hPa 0,0 l/m 1,6 km/h (1 Bft) W 270 0 min 0,000 mm 0 W/m 17,5 C 19,9 C 6,4 km/h (2 Bft) 100,00 %
15.08.2017 21:20 19,8 C 19,8 C 19,9 C 86 % 0 cb 1018,7 hPa 0,0 l/m 1,6 km/h (1 Bft) W 270 0 min 0,000 mm 0 W/m 17,4 C 19,8 C 4,8 km/h (1 Bft) 100,00 %
15.08.2017 21:30 19,7 C 19,7 C 19,8 C 86 % 0 cb 1019,0 hPa 0,0 l/m 3,2 km/h (1 Bft) W 270 0 min 0,000 mm 0 W/m 17,3 C 19,7 C 6,4 km/h (2 Bft) 100,00 %
15.08.2017 21:40 19,8 C 19,7 C 19,8 C 84 % 0 cb 1019,2 hPa 0,0 l/m 4,8 km/h (1 Bft) W 270 0 min 0,000 mm 0 W/m 17,0 C 19,8 C 17,7 km/h (3 Bft) 100,00 %
15.08.2017 21:50 19,8 C 19,8 C 19,8 C 80 % 0 cb 1019,4 hPa 0,2 l/m 8,0 km/h (2 Bft) W 270 0 min 0,000 mm 0 W/m 16,2 C 19,8 C 22,5 km/h (4 Bft) 100,00 %
15.08.2017 22:00 19,8 C 19,8 C 19,9 C 80 % 0 cb 1019,5 hPa 0,0 l/m 8,0 km/h (2 Bft) W 270 0 min 0,025 mm 0 W/m 16,2 C 19,8 C 22,5 km/h (4 Bft) 100,00 %
15.08.2017 22:10 19,6 C 19,6 C 19,8 C 81 % 0 cb 1019,5 hPa 0,0 l/m 8,0 km/h (2 Bft) W-NW 292 0 min 0,000 mm 0 W/m 16,2 C 19,6 C 19,3 km/h (3 Bft) 100,00 %
15.08.2017 22:20 19,2 C 19,2 C 19,6 C 83 % 0 cb 1019,7 hPa 0,0 l/m 6,4 km/h (2 Bft) W-SW 247 0 min 0,000 mm 0 W/m 16,2 C 19,2 C 20,9 km/h (4 Bft) 100,00 %
15.08.2017 22:30 18,8 C 18,8 C 19,2 C 86 % 0 cb 1019,7 hPa 0,0 l/m 1,6 km/h (1 Bft) SW 225 0 min 0,000 mm 0 W/m 16,4 C 18,8 C 4,8 km/h (1 Bft) 100,00 %
15.08.2017 22:40 18,4 C 18,4 C 18,8 C 87 % 0 cb 1019,7 hPa 0,2 l/m 1,6 km/h (1 Bft) SW 225 0 min 0,000 mm 0 W/m 16,2 C 18,4 C 8,0 km/h (2 Bft) 100,00 %
15.08.2017 22:50 18,1 C 18,1 C 18,4 C 88 % 0 cb 1019,8 hPa 0,0 l/m 0,0 km/h (0 Bft) SW 225 0 min 0,000 mm 0 W/m 16,1 C 18,1 C 3,2 km/h (1 Bft) 100,00 %
15.08.2017 23:00 17,7 C 17,7 C 18,1 C 88 % 0 cb 1020,0 hPa 0,0 l/m 1,6 km/h (1 Bft) S-SW 202 0 min 0,025 mm 0 W/m 15,7 C 17,7 C 4,8 km/h (1 Bft) 100,00 %
15.08.2017 23:10 17,4 C 17,4 C 17,7 C 89 % 0 cb 1020,2 hPa 0,0 l/m 1,6 km/h (1 Bft) S-SW 202 0 min 0,000 mm 0 W/m 15,6 C 17,4 C 6,4 km/h (2 Bft) 100,00 %
15.08.2017 23:20 17,3 C 17,3 C 17,4 C 90 % 0 cb 1020,1 hPa 0,0 l/m 1,6 km/h (1 Bft) W 270 0 min 0,000 mm 0 W/m 15,6 C 17,3 C 6,4 km/h (2 Bft) 100,00 %
15.08.2017 23:30 17,2 C 17,2 C 17,3 C 90 % 0 cb 1020,1 hPa 0,0 l/m 4,8 km/h (1 Bft) W 270 0 min 0,000 mm 0 W/m 15,5 C 17,2 C 17,7 km/h (3 Bft) 100,00 %
15.08.2017 23:40 17,1 C 17,1 C 17,2 C 91 % 0 cb 1020,2 hPa 0,0 l/m 3,2 km/h (1 Bft) W 270 0 min 0,000 mm 0 W/m 15,6 C 17,1 C 12,9 km/h (3 Bft) 100,00 %
15.08.2017 23:50 16,9 C 16,9 C 17,1 C 91 % 0 cb 1020,3 hPa 0,0 l/m 1,6 km/h (1 Bft) S-SW 202 0 min 0,000 mm 0 W/m 15,4 C 16,9 C 11,3 km/h (2 Bft) 100,00 %
_ Min-Zeit 05:50 05:50 05:40 11:30 00:00 09:30 - 00:00 - - - - - 05:30 05:30 00:00 15:30
Minimum _ 14,2 C 14,2 C 14,3 C 64 % 0 cb 1016,5 hPa - 0,0 km/h (0 Bft) - - - - - 13,5 C 14,3 C 0,0 km/h (0 Bft) 99,12 %
_ Max-Zeit 11:40 11:40 11:40 06:50 00:00 23:50 13:40 16:50 - - 08:10 11:00 11:10 15:40 11:30 21:50 00:00
Maximum _ 25,1 C 24,9 C 25,1 C 97 % 0 cb 1020,3 hPa 0,6 l/m 8,0 km/h
W (2 Bft)
- - 10 min 0,330 mm 826 W/m 19,3 C 25,0 C 22,5 km/h
W-NW (4 Bft)
100,00 %
Durchschnitt _ 19,2 C 19,1 C 19,3 C 85 % 0 cb 1017,7 hPa #2,2 l/m 2,0 km/h (1 Bft) W - #9:20 h #2,132 mm 280 W/m 16,5 C 19,2 C 6,7 km/h (2 Bft) 99,98 %
Wetterstation Gdesweiler